DW1024 Weather Reports


time (UTC)temp
C
wind
direction
speed
KPH
gust
KPH
rain 1hr
cm
rain 24hr
cm
rain mn
cm
humidity
%
barometer
mb
20260831184921 18 227 0.0 3.2 0.00 0.00 0.00 66 1020.4
20260831181922 20 219 0.0 3.2 0.00 0.00 0.00 64 1019.6
20260831180420 20 219 1.6 6.4 0.00 0.00 0.00 61 1019.3
20260831174922 21 246 1.6 6.4 0.00 0.00 0.00 59 1019.2
20260831173422 21 229 1.6 6.4 0.00 0.00 0.00 58 1019.1
20260831171916 22 249 3.2 12.9 0.00 0.00 0.00 55 1019.1
20260831170418 22 273 4.8 12.9 0.00 0.00 0.00 55 1018.9
20260831164918 22 162 4.8 19.3 0.00 0.00 0.00 54 1018.6
20260831163416 23 264 3.2 12.9 0.00 0.00 0.00 51 1018.7
20260831160413 23 297 4.8 14.5 0.00 0.00 0.00 49 1018.4
20260831154912 23 238 3.2 14.5 0.00 0.00 0.00 50 1018.4
20260831150410 23 277 6.4 17.7 0.00 0.00 0.00 48 1018.7
20260831144914 23 323 4.8 16.1 0.00 0.00 0.00 47 1018.9
20260831143410 24 294 8.0 22.5 0.00 0.00 0.00 46 1018.9
20260831141911 25 324 8.0 24.1 0.00 0.00 0.00 42 1018.9
20260831140411 25 257 8.0 24.1 0.00 0.00 0.00 44 1019.0
20260831134910 25 194 9.7 25.7 0.00 0.00 0.00 44 1018.7
20260831133711 25 283 11.3 30.6 0.00 0.00 0.00 44 1018.9
20260831133039 25 276 9.7 24.1 0.00 0.00 0.00 48 1018.9
20260831130408 24 267 11.3 25.7 0.00 0.00 0.00 54 1019.1
20260831124911 25 271 6.4 25.7 0.00 0.00 0.00 50 1019.1
20260831123404 24 283 9.7 27.4 0.00 0.00 0.00 54 1019.1
20260831114906 25 259 8.0 19.3 0.00 0.00 0.00 55 1019.1
20260831113406 24 281 9.7 25.7 0.00 0.00 0.00 55 1019.1
20260831111907 25 276 8.0 20.9 0.00 0.00 0.00 56 1019.1
20260831110407 24 236 8.0 22.5 0.00 0.00 0.00 56 1019.2
20260831104907 25 209 4.8 20.9 0.00 0.00 0.00 56 1019.1
20260831103402 25 230 6.4 19.3 0.00 0.00 0.00 59 1019.1
20260831101902 24 145 8.0 19.3 0.00 0.00 0.00 59 1019.1
20260831100402 23 261 6.4 19.3 0.00 0.00 0.00 63 1019.1
20260831094906 23 240 8.0 19.3 0.00 0.00 0.00 61 1019.4
20260831093405 23 162 6.4 24.1 0.00 0.00 0.00 62 1019.5
20260831084904 22 211 4.8 20.9 0.00 0.00 0.00 65 1019.5
20260831083402 22 190 8.0 25.7 0.00 0.00 0.00 64 1019.3
20260831081905 22 255 6.4 17.7 0.00 0.00 0.00 64 1019.3
20260831080402 21 185 8.0 19.3 0.00 0.00 0.00 67 1019.3
20260831074902 21 297 6.4 17.7 0.00 0.00 0.00 69 1019.1
20260831073402 20 294 6.4 19.3 0.00 0.00 0.00 75 1018.9
20260831071904 20 180 4.8 16.1 0.00 0.00 0.00 75 1018.9
20260831070404 20 202 8.0 22.5 0.00 0.00 0.00 74 1018.8
20260831064902 20 273 6.4 17.7 0.00 0.00 0.00 74 1018.8
20260831063404 19 209 4.8 17.7 0.00 0.00 0.00 77 1018.7
20260831060404 18 233 4.8 19.3 0.00 0.00 0.00 78 1018.3
20260831054904 18 136 4.8 24.1 0.00 0.00 0.00 79 1018.3
20260831053405 18 302 4.8 20.9 0.00 0.00 0.00 81 1018.2
20260831051904 18 205 6.4 12.9 0.00 0.00 0.00 81 1018.1
20260831050404 17 228 3.2 16.1 0.00 0.00 0.00 82 1018.1
20260831044904 17 263 4.8 12.9 0.00 0.00 0.00 84 1017.9
20260831043411 17 194 3.2 12.9 0.00 0.00 0.00 85 1017.9
20260831040415 17 155 3.2 11.3 0.00 0.00 0.00 85 1018.1
20260831034921 17 321 3.2 8.0 0.00 0.00 0.00 84 1017.6
20260831033418 17 291 4.8 17.7 0.00 0.00 0.00 86 1017.7
20260831031905 17 201 6.4 22.5 0.00 0.00 0.00 86 1018.3
20260831030409 18 217 9.7 37.0 0.00 0.00 0.00 85 1018.7
20260831023408 18 195 0.0 4.8 0.00 0.00 0.00 85 1015.8
20260831021905 18 246 1.6 6.4 0.00 0.00 0.00 84 1015.9
20260831020405 18 222 1.6 6.4 0.00 0.00 0.00 84 1015.6
20260831013403 18 208 0.0 0.0 0.00 0.00 0.00 85 1015.7
20260831011901 18 198 0.0 0.0 0.00 0.00 0.00 84 1015.8
20260831004901 18 211 0.0 3.2 0.00 0.00 0.00 84 1016.2
20260831003402 18 211 0.0 1.6 0.00 0.00 0.00 83 1016.3
20260831001902 19 211 0.0 1.6 0.00 0.00 0.00 83 1016.5
20260831000403 19 211 1.6 3.2 0.00 0.00 0.00 82 1016.6
20260830234858 19 205 1.6 4.8 0.00 0.00 0.00 82 1016.5
20260830233359 19 202 0.0 3.2 0.00 0.00 0.00 81 1016.7
20260830230356 19 202 1.6 4.8 0.00 0.00 0.00 80 1017.0
20260830224858 19 200 0.0 3.2 0.00 0.00 0.00 80 1017.0
20260830223357 20 204 1.6 4.8 0.00 0.00 0.00 79 1017.2
20260830221901 20 210 0.0 3.2 0.00 0.00 0.00 79 1017.4
20260830220358 20 210 0.0 1.6 0.00 0.00 0.00 78 1017.4
20260830214857 20 210 0.0 3.2 0.00 0.00 0.00 77 1017.3
20260830213357 20 209 0.0 3.2 0.00 0.00 0.00 77 1017.2
20260830211856 20 210 0.0 3.2 0.00 0.00 0.00 77 1017.3
20260830203357 21 210 0.0 3.2 0.00 0.00 0.00 74 1017.2
20260830201900 21 210 1.6 3.2 0.00 0.00 0.00 73 1017.2
20260830194855 21 290 0.0 0.0 0.00 0.00 0.00 71 1017.5
20260830191853 21 290 0.0 0.0 0.00 0.00 0.00 74 1017.4
20260830190358 21 290 0.0 0.0 0.00 0.00 0.00 71 1017.3